Regional Weather Roundup
Issued by NWS

Home | Current Version | Previous Version | Text Only | Print | Product List | Glossary Off
Versions: 1 2 3 4 5 6 7 8 9 10 11 12 13 14 15 16 17 18 19 20 21 22 23 24 25 26 27 28 29 30 31 32 33 34 35 36 37 38 39 40 41 42 43 44 45 46 47 48 49 50

000
ASUS43 KDMX 250906
RWRIA

WEATHER ROUNDUP FOR IOWA
NATIONAL WEATHER SERVICE DES MOINES IA
400 AM CDT SAT MAR 25 2017

NOTE: "FAIR" INDICATES FEW OR NO CLOUDS BELOW 12,000 FEET WITH NO
SIGNIFICANT WEATHER AND/OR OBSTRUCTIONS TO VISIBILITY.

* - THESE STATIONS ARE NOT NWS STATIONS...THUS NOT UNDER NWS
QUALITY CONTROL.  THEY ALSO DO NOT REPORT WEATHER SUCH
AS PRECIPITATION OR FOG.

IAZ001>003-012>014-020>022-031>034-043>046-251000-
   NORTHWEST IOWA

CITY           SKY/WX    TMP DP  RH WIND       PRES   REMARKS
CARROLL *      CLOUDY    39  39 100 NE16G23   29.96R WCI  30
CHEROKEE *     CLOUDY    38  38  98 NE13G18   30.02S WCI  30
LE MARS *      CLOUDY    39  37  93 N14G22    30.05F WCI  31
ORANGE CITY *  CLOUDY    37  36  93 NE13G18   30.05S FOG     WCI  29
SHELDON *      CLOUDY    36  36 100 NE17G23   30.04F FOG     WCI  25
SIOUX CITY     CLOUDY    39  38  96 NE15G22   30.03S WCI  31
SPENCER        CLOUDY    38  36  92 NE22G29   30.03F FOG     WCI  27
STORM LAKE *   CLOUDY    37  36  93 NE24G31   29.99S FOG     WCI  26
$$

IAZ055>058-069>071-079>083-090>094-251000-
   SOUTHWEST IOWA

CITY           SKY/WX    TMP DP  RH WIND       PRES   REMARKS
ATLANTIC *     CLOUDY    41  41 100 NE15      29.90S FOG
AUDUBON *      CLOUDY    39  37  93 NE15G22   29.92R FOG     WCI  31
CLARINDA *     CLOUDY    45  45 100 NE14      29.87S
COUNCIL BLFS * MIX PCPN  41  41 100 N18       29.91R
CRESTON *      FOG       43  43 100 NE16G25   29.86F VSB 1/4
HARLAN  *      CLOUDY    39  39 100 NE18G25   29.95R WCI  30
LAMONI         FOG       47  46  97 NE13      29.82F VSB 1/4
RED OAK *      CLOUDY    41  41 100 NE20      29.88S
SHENANDOAH *   MIX PCPN  43  41  93 NE18      29.87S
$$

IAZ047>049-059>061-072>074-084-251000-
   CENTRAL IOWA

CITY           SKY/WX    TMP DP  RH WIND       PRES   REMARKS
AMES           CLOUDY    40  40 100 NE14G22   29.93F FOG     WCI  32
ANKENY *       CLOUDY    41  39  93 NE13      29.93S
BOONE *        CLOUDY    39  39 100 E20G28    29.91F FOG     WCI  30
CHARITON *     FOG       46  46 100 NE14      29.85F VSB<1/4
DES MOINES     CLOUDY    43  41  93 NE14G24   29.90F
GRINNELL*      CLOUDY    42  41  97 NE18      29.92S FOG
MARSHALLTOWN   CLOUDY    40  39  97 NE17      29.95S WCI  31
NEWTON *       CLOUDY    41  41 100 NE22      29.90S FOG
PELLA *        CLOUDY    45  45  98 NE10G22   29.90S FOG
PERRY *        CLOUDY    40  39  95 NE15      29.93R FOG     WCI  32
$$

IAZ004>006-015-016-023>025-035-036-251000-
   NORTH CENTRAL IOWA

CITY           SKY/WX    TMP DP  RH WIND       PRES   REMARKS
ALGONA *       CLOUDY    37  37 100 NE18G24   30.01F FOG     WCI  27
CLARION *      CLOUDY    39  39 100 NE17G29   29.99S WCI  30
ESTHERVILLE    CLOUDY    36  36 100 NE22      30.04F WCI  25
FORT DODGE *   CLOUDY    39  36  87 NE15G22   29.98F WCI  31
MASON CITY     CLOUDY    38  36  92 NE17      30.02F WCI  28
FOREST CITY *  CLOUDY    37  36  93 NE15G21   30.02F WCI  28
WEBSTER CITY * CLOUDY    39  37  93 NE18G25   29.94S WCI  30
IOWA FALLS *   LGT RAIN  39  37  93 NE15G23   29.96F WCI  31
$$

IAZ007>011-017>019-026>030-037>042-050>054-066-251000-
   NORTHEAST IOWA

CITY           SKY/WX    TMP DP  RH WIND       PRES   REMARKS
CEDAR RAPIDS   CLOUDY    41  41 100 E18       29.94F FOG
CHARLES CITY * CLOUDY    37  37 100 NE17G23   30.01F WCI  28
CLINTON *      CLOUDY    41  39  93 E18       29.99F
DECORAH *      CLOUDY    37  36  93 NE14G20   30.02F WCI  29
DUBUQUE        CLOUDY    38  36  92 NE17      30.00F WCI  28
MONTICELLO *   CLOUDY    41  39  93 E13G23    29.98S
OELWEIN *      CLOUDY    37  37 100 E17G25    29.98F WCI  28
WATERLOO       CLOUDY    39  36  89 E20       29.97F WCI  29
$$

IAZ064-065-067-068-078-251000-
   EAST CENTRAL IOWA

CITY           SKY/WX    TMP DP  RH WIND       PRES   REMARKS
DAVENPORT      CLOUDY    42  40  92 E18       29.96F
IOWA CITY      CLOUDY    46  42  86 NE14G21   29.95F
MUSCATINE *    CLOUDY    46  43  87 E15       29.94S
QUAD CITIES    CLOUDY    44  40  85 NE18      29.95F
$$

IAZ062-063-075>077-085>089-095>099-251000-
   SOUTHEAST IOWA

CITY           SKY/WX    TMP DP  RH WIND       PRES   REMARKS
BURLINGTON     CLOUDY    52 N/A N/A NE18      29.86F HAZE
FAIRFIELD *    FOG       52  52 100 E21       29.86F VSB 1
FORT MADISON * CLOUDY    55  54  94 NE14G24   29.85F FOG
KEOKUK *       LGT RAIN  55  55 100 NE10G17   29.82F
OSKALOOSA *    FOG       46  46  97 NE20      29.87F VSB 1/2
CENTERVILLE *  LGT RAIN  54  54 100 E8        29.84F
OTTUMWA        FOG       50  50 100 NE18      29.86F VSB 3/4
WASHINGTON *   CLOUDY    46  46 100 NE18G25   29.91S FOG
$$

ABBREVIATIONS USED IN REMARKS
   TC - TEMPERATURES IN CELSIUS
  WCI - WIND CHILL INDEX
   HX - HEAT INDEX
  VSB - VISIBILITY
$$




USA.gov is the U.S. government's official web portal to all federal, state and local government web resources and services.